• In Hungary
  • List of Countries
  • For 7 days
  • Water Temperature
  • Satellite Maps
  • Weather Map
  • News
  • Weather Widgets
  • user-avatar
    Login

    Hourly Weather Slipushyns'ke

    Today, 22 October, Monday

    Time Temperature Precipitation Wind Pressure Humidity
    00:00 +15°C° 0 mm 6 mps 763 mmHg 73%
    01:00 +14°C° 0 mm 6 mps 763 mmHg 74%
    02:00 +14°C° 0 mm 5 mps 763 mmHg 75%
    03:00 +13°C° 0 mm 5 mps 763 mmHg 76%
    04:00 +12°C° 0 mm 5 mps 763 mmHg 77%
    05:00 +12°C° 0 mm 5 mps 763 mmHg 78%
    06:00 +11°C° 0 mm 6 mps 764 mmHg 76%
    07:00 +11°C° 0 mm 6 mps 764 mmHg 74%
    08:00 +13°C° 0 mm 6 mps 764 mmHg 72%
    09:00 +14°C° 0 mm 5 mps 764 mmHg 65%
    10:00 +16°C° 0 mm 5 mps 764 mmHg 58%
    11:00 +18°C° 0 mm 4 mps 764 mmHg 52%
    12:00 +19°C° 0 mm 4 mps 764 mmHg 50%
    13:00 +19°C° 0 mm 4 mps 764 mmHg 48%
    14:00 +19°C° 0 mm 4 mps 764 mmHg 47%
    15:00 +18°C° 0 mm 3 mps 763 mmHg 48%
    16:00 +18°C° 0 mm 3 mps 763 mmHg 50%
    17:00 +17°C° 0 mm 3 mps 763 mmHg 52%
    18:00 +16°C° 0 mm 3 mps 763 mmHg 54%
    19:00 +16°C° 0 mm 3 mps 763 mmHg 56%
    20:00 +14°C° 0 mm 3 mps 763 mmHg 58%
    21:00 +13°C° 0 mm 3 mps 763 mmHg 60%
    22:00 +12°C° 0 mm 3 mps 763 mmHg 63%
    23:00 +12°C° 0 mm 3 mps 763 mmHg 66%

    Tomorrow, 23 October, Tuesday

    Time Temperature Precipitation Wind Pressure Humidity
    00:00 +11°C° 0 mm 3 mps 763 mmHg 67%
    01:00 +11°C° 0 mm 3 mps 763 mmHg 68%
    02:00 +10°C° 0 mm 3 mps 763 mmHg 69%
    03:00 +10°C° 0 mm 3 mps 763 mmHg 70%
    04:00 +9°C° 0 mm 2 mps 763 mmHg 71%
    05:00 +9°C° 0 mm 2 mps 762 mmHg 72%
    06:00 +9°C° 0 mm 2 mps 763 mmHg 69%
    07:00 +10°C° 0 mm 2 mps 763 mmHg 65%
    08:00 +11°C° 0 mm 3 mps 763 mmHg 62%
    09:00 +12°C° 0 mm 3 mps 763 mmHg 55%
    10:00 +14°C° 0 mm 3 mps 763 mmHg 47%
    11:00 +16°C° 0 mm 3 mps 762 mmHg 39%
    12:00 +17°C° 0 mm 4 mps 762 mmHg 38%
    13:00 +17°C° 0 mm 4 mps 761 mmHg 36%
    14:00 +17°C° 0 mm 5 mps 761 mmHg 34%
    15:00 +15°C° 0 mm 5 mps 760 mmHg 39%
    16:00 +14°C° 0 mm 4 mps 760 mmHg 44%
    17:00 +13°C° 0 mm 4 mps 759 mmHg 50%
    18:00 +12°C° 0 mm 4 mps 759 mmHg 54%
    19:00 +12°C° 0 mm 4 mps 759 mmHg 58%
    20:00 +10°C° 0 mm 5 mps 759 mmHg 63%
    21:00 +12°C° 0 mm 5 mps 758 mmHg 63%
    22:00 +11°C° 0 mm 6 mps 757 mmHg 64%
    23:00 +11°C° 0 mm 7 mps 757 mmHg 65%

    Day after tomorrow, 24 October, Wednesday

    Time Temperature Precipitation Wind Pressure Humidity
    00:00 +12°C° 0.1 mm 8 mps 756 mmHg 66%
    01:00 +12°C° 0.1 mm 9 mps 755 mmHg 67%
    02:00 +13°C° 0.1 mm 10 mps 754 mmHg 67%
    03:00 +13°C° 0.2 mm 10 mps 753 mmHg 67%
    04:00 +13°C° 0.2 mm 10 mps 752 mmHg 67%
    05:00 +13°C° 0.2 mm 10 mps 751 mmHg 67%
    06:00 +13°C° 0.2 mm 10 mps 750 mmHg 66%
    07:00 +12°C° 0.2 mm 10 mps 750 mmHg 65%
    08:00 +12°C° 0.2 mm 10 mps 749 mmHg 64%
    09:00 +13°C° 0.1 mm 11 mps 748 mmHg 60%
    10:00 +14°C° 0.1 mm 11 mps 747 mmHg 56%
    11:00 +15°C° 0.1 mm 12 mps 747 mmHg 52%
    12:00 +15°C° 0 mm 12 mps 746 mmHg 51%
    13:00 +15°C° 0 mm 12 mps 745 mmHg 50%
    14:00 +15°C° 0 mm 12 mps 744 mmHg 50%
    15:00 +14°C° 0.6 mm 12 mps 744 mmHg 57%
    16:00 +13°C° 0.6 mm 12 mps 743 mmHg 64%
    17:00 +12°C° 0.6 mm 11 mps 743 mmHg 71%
    18:00 +9°C° 0.8 mm 11 mps 743 mmHg 68%
    19:00 +8°C° 0.8 mm 11 mps 744 mmHg 64%
    20:00 +7°C° 0.8 mm 10 mps 744 mmHg 60%
    21:00 +6°C° 0 mm 10 mps 744 mmHg 59%
    22:00 +6°C° 0 mm 10 mps 745 mmHg 57%
    23:00 +5°C° 0 mm 10 mps 745 mmHg 56%

    25 October, Thursday

    Time Temperature Precipitation Wind Pressure Humidity
    00:00 +4°C° 0.5 mm 11 mps 745 mmHg 60%
    01:00 +5°C° 0.5 mm 12 mps 746 mmHg 65%
    02:00 +5°C° 0.5 mm 12 mps 746 mmHg 70%
    03:00 +5°C° 0.1 mm 12 mps 746 mmHg 69%
    04:00 +4°C° 0.1 mm 11 mps 746 mmHg 68%
    05:00 +4°C° 0.1 mm 11 mps 747 mmHg 68%
    06:00 +4°C° 0.3 mm 11 mps 747 mmHg 68%
    07:00 +6°C° 0.3 mm 11 mps 748 mmHg 68%
    08:00 +6°C° 0.3 mm 11 mps 749 mmHg 68%
    09:00 +7°C° 0.2 mm 11 mps 749 mmHg 64%
    10:00 +8°C° 0.2 mm 11 mps 750 mmHg 60%
    11:00 +9°C° 0.2 mm 11 mps 750 mmHg 56%
    12:00 +9°C° 0.1 mm 11 mps 751 mmHg 54%
    13:00 +9°C° 0.1 mm 11 mps 751 mmHg 52%
    14:00 +9°C° 0.1 mm 11 mps 751 mmHg 50%
    15:00 +9°C° 0.1 mm 11 mps 752 mmHg 52%
    16:00 +8°C° 0.1 mm 11 mps 753 mmHg 53%
    17:00 +7°C° 0.1 mm 11 mps 754 mmHg 54%
    18:00 +7°C° 0 mm 10 mps 755 mmHg 55%
    19:00 +6°C° 0 mm 10 mps 755 mmHg 55%
    20:00 +6°C° 0 mm 10 mps 756 mmHg 56%
    21:00 +5°C° 0 mm 9 mps 756 mmHg 57%
    22:00 +5°C° 0 mm 8 mps 757 mmHg 59%
    23:00 +5°C° 0 mm 7 mps 757 mmHg 60%

    26 October, Friday

    Time Temperature Precipitation Wind Pressure Humidity
    00:00 +5°C° 0 mm 7 mps 757 mmHg 60%
    01:00 +5°C° 0 mm 7 mps 757 mmHg 60%
    02:00 +5°C° 0 mm 7 mps 757 mmHg 60%
    03:00 +5°C° 0 mm 7 mps 757 mmHg 61%
    04:00 +5°C° 0 mm 7 mps 757 mmHg 63%
    05:00 +5°C° 0 mm 7 mps 757 mmHg 64%
    06:00 +5°C° 0.2 mm 8 mps 757 mmHg 67%
    07:00 +6°C° 0.2 mm 8 mps 758 mmHg 69%
    08:00 +6°C° 0.2 mm 9 mps 758 mmHg 71%
    09:00 +8°C° 0.1 mm 9 mps 758 mmHg 66%
    10:00 +10°C° 0.1 mm 9 mps 758 mmHg 62%
    11:00 +11°C° 0.1 mm 9 mps 758 mmHg 57%
    12:00 +12°C° 0 mm 9 mps 758 mmHg 56%
    13:00 +12°C° 0 mm 8 mps 759 mmHg 55%
    14:00 +13°C° 0 mm 8 mps 759 mmHg 55%
    15:00 +12°C° 0 mm 7 mps 759 mmHg 57%
    16:00 +11°C° 0 mm 6 mps 760 mmHg 59%
    17:00 +12°C° 0 mm 5 mps 760 mmHg 62%
    18:00 +10°C° 0 mm 5 mps 761 mmHg 64%
    19:00 +11°C° 0 mm 4 mps 761 mmHg 67%
    20:00 +10°C° 0 mm 4 mps 762 mmHg 70%
    21:00 +10°C° 0 mm 4 mps 762 mmHg 70%
    22:00 +10°C° 0 mm 4 mps 762 mmHg 70%
    23:00 +10°C° 0 mm 4 mps 762 mmHg 70%

    27 October, Saturday

    Time Temperature Precipitation Wind Pressure Humidity
    00:00 +10°C° 0 mm 4 mps 763 mmHg 72%
    01:00 +9°C° 0 mm 5 mps 763 mmHg 73%
    02:00 +9°C° 0 mm 5 mps 763 mmHg 75%
    03:00 +9°C° 0 mm 5 mps 763 mmHg 77%
    04:00 +10°C° 0 mm 5 mps 763 mmHg 80%
    05:00 +10°C° 0 mm 6 mps 763 mmHg 82%
    06:00 +11°C° 0 mm 6 mps 763 mmHg 78%
    07:00 +13°C° 0 mm 6 mps 763 mmHg 75%
    08:00 +14°C° 0 mm 7 mps 763 mmHg 71%
    09:00 +15°C° 0 mm 8 mps 763 mmHg 65%
    10:00 +17°C° 0 mm 8 mps 763 mmHg 59%
    11:00 +18°C° 0 mm 9 mps 763 mmHg 53%
    12:00 +18°C° 0 mm 9 mps 763 mmHg 53%
    13:00 +18°C° 0 mm 9 mps 763 mmHg 54%
    14:00 +18°C° 0 mm 9 mps 762 mmHg 54%
    15:00 +17°C° 0 mm 9 mps 762 mmHg 59%
    16:00 +16°C° 0 mm 9 mps 762 mmHg 65%
    17:00 +15°C° 0 mm 8 mps 762 mmHg 70%
    18:00 +15°C° 0 mm 8 mps 763 mmHg 71%
    19:00 +15°C° 0 mm 8 mps 763 mmHg 72%
    20:00 +13°C° 0 mm 8 mps 763 mmHg 74%
    21:00 +13°C° 0 mm 8 mps 763 mmHg 74%
    22:00 +13°C° 0 mm 8 mps 763 mmHg 74%
    23:00 +13°C° 0 mm 8 mps 763 mmHg 74%

    28 October, Sunday

    Time Temperature Precipitation Wind Pressure Humidity
    00:00 +13°C° 0 mm 8 mps 763 mmHg 73%
    01:00 +13°C° 0 mm 8 mps 763 mmHg 72%
    02:00 +13°C° 0 mm 8 mps 763 mmHg 72%
    03:00 +13°C° 0 mm 8 mps 763 mmHg 71%
    04:00 +13°C° 0 mm 8 mps 763 mmHg 71%
    05:00 +13°C° 0 mm 8 mps 763 mmHg 70%
    06:00 +15°C° 0 mm 8 mps 763 mmHg 67%
    07:00 +16°C° 0 mm 9 mps 763 mmHg 64%
    08:00 +17°C° 0 mm 9 mps 763 mmHg 61%
    09:00 +18°C° 0 mm 9 mps 763 mmHg 54%
    10:00 +19°C° 0 mm 9 mps 763 mmHg 46%
    11:00 +22°C° 0 mm 10 mps 763 mmHg 39%
    12:00 +22°C° 0 mm 9 mps 763 mmHg 39%
    13:00 +22°C° 0 mm 9 mps 763 mmHg 39%
    14:00 +22°C° 0 mm 9 mps 763 mmHg 39%
    15:00 +21°C° 0 mm 9 mps 763 mmHg 46%
    16:00 +18°C° 0 mm 8 mps 762 mmHg 53%
    17:00 +17°C° 0 mm 8 mps 762 mmHg 60%
    18:00 +16°C° 0 mm 8 mps 763 mmHg 62%
    19:00 +16°C° 0 mm 8 mps 763 mmHg 65%
    20:00 +16°C° 0 mm 8 mps 763 mmHg 67%
    21:00 +15°C° 0 mm 8 mps 763 mmHg 69%
    22:00 +15°C° 0 mm 8 mps 763 mmHg 70%
    23:00 +15°C° 0 mm 7 mps 763 mmHg 71%
    Show more